Back to catalog

SL-14 DEB

AlivePO
NORAD 39975·DEBRIS·🇷🇺 Russia

Launched Aug 18, 1987 from Plesetsk Cosmodrome

Loading…

Next Passes (next 24 hours)

TLE

FreshSource: Space-Track

Epoch: Sep 14, 2026, 05:54 UTC

1 39975U 87068DB  26257.24650646  .00000677  00000-0  39429-3 0  9997
2 39975  82.5983  86.4074 0095057 191.8794 168.0137 14.05073895628053

Track SL-14 DEB in real time with AllMySat

Download on the App Store